{"data":{"norad_id":49338,"epoch":"2026-05-25T04:53:54.791232Z","epoch_age_seconds":64235,"freshness":"FRESH","line1":"1 49338U 21097A   26145.20410638  .00003025  00000+0  20254-3 0  9993","line2":"2 49338  97.6671 271.4695 0017306 308.2850  51.6820 15.07569931252852","mean_motion":15.07569931,"eccentricity":0.0017306,"inclination_deg":97.6671,"raan_deg":271.4695,"arg_perigee_deg":308.285,"mean_anomaly_deg":51.682,"bstar":0.00020254,"rev_number":25285,"period_min":95.517957103643,"perigee_km":531.64940010277,"apogee_km":555.60701383714,"semimajor_km":6921.76520697,"source":"CELESTRAK","updated_at":"2026-05-25T13:37:57.172274Z"}}